Weather Roundup
Issued by NWS

Home | Current Version | Previous Version | Graphics & Text | Print | Product List | Glossary Off
Versions: 1 2 3 4 5 6 7 8 9 10 11 12 13 14 15 16 17 18 19 20 21 22 23 24 25 26 27 28 29 30 31 32 33 34 35 36 37 38 39 40 41 42 43 44 45 46 47 48 49 50

000
NZUS93 KARX 012059
HRRWXR

CURRENT HOURLY OBSERVATIONS ACROSS
MUCH OF THE UPPER MISSISSIPPI VALLEY
NATIONAL WEATHER SERVICE LA CROSSE WI
400 PM CDT TUE SEP 01 2015


...SOUTHEAST MINNESOTA...


CITY           SKY/WX    TMP DP  RH WIND       PRES   REMARKS
ROCHESTER      PTSUNNY   83  74  74 S12       29.94S
ROCHESTER/MAYO FAIR      86  71  60 S12G17    29.93S HX  91
WINONA         MOSUNNY   90  72  55 S5        29.90F HX  96
AUSTIN         PTSUNNY   84  72  65 S10       29.93F
ALBERT LEA     PTSUNNY   82  72  69 S5        29.93S
DODGE CENTER   PTSUNNY   82  72  69 S14       29.94S
PRESTON        PTSUNNY   84  71  65 S13G20    29.94F
OWATONNA       PTSUNNY   84  73  70 S8        29.92S HX  91
FARIBAULT      CLOUDY    84  73  70 S9        29.91F HX  91
$$

...ELSEWHERE IN MINNESOTA...


CITY           SKY/WX    TMP DP  RH WIND       PRES   REMARKS
MINNEAPOLIS    CLOUDY    84  73  69 S6        29.89S HX  90
INTNL FALLS    SUNNY     81  51  35 VRB3      29.88F
DULUTH         MOSUNNY   83  64  52 SW7       29.91S
RED WING       PTSUNNY   88  72  58 S5        29.88F HX  94
REDWOOD FALLS  CLOUDY    84  72  67 SE8       29.86F
MANKATO        CLOUDY    84  72  65 S8        29.89F
WORTHINGTON    CLOUDY    81  70  69 S9        29.91S
FAIRMONT       CLOUDY    82  68  61 S7        29.91S
$$

...SOUTHWEST WISCONSIN...


CITY           SKY/WX    TMP DP  RH WIND       PRES   REMARKS
LA CROSSE      MOSUNNY   90  73  57 S12       29.90F HX  98
PRAIRIE DU CHI SUNNY     88  70  55 S5        29.92F HX  92
BOSCOBEL       SUNNY     91  71  51 S9        29.93F HX  97
LONE ROCK      NOT AVBL
PLATTEVILLE    SUNNY     86  74  68 S10       29.98S HX  93
FORT MC COY    SUNNY     89  67  48 S7        29.94S HX  92
VIROQUA          N/A     86  71  60 S9        29.96F HX  91
WIS DELLS      MOSUNNY   88  67  48 SW10      29.96S HX  91
$$

...ELSEWHERE IN WISCONSIN...


CITY           SKY/WX    TMP DP  RH WIND       PRES   REMARKS
MILWAUKEE      MOSUNNY   89  68  49 SW8       29.97S HX  93
MADISON        PTSUNNY   87  70  56 S10       29.96S HX  92
GREEN BAY      MOSUNNY   88  72  58 SW10      29.93F HX  94
EAU CLAIRE     NOT AVBL
BLACK RVR FLS  FAIR      90  68  49 S7        29.92S HX  93
MEDFORD        CLOUDY    82  71  70 SW6       29.96S
WAUSAU         CLOUDY    84  68  58 SW9       29.93F
WIS RAPIDS     MOSUNNY   87  69  54 SW10      29.95F HX  91
MARSHFIELD     MOSUNNY   87  68  52 SW8       29.94F HX  90
RICE LAKE      PTSUNNY   83  71  66 S5        29.93F
$$

...NORTHEAST IOWA...


CITY           SKY/WX    TMP DP  RH WIND       PRES   REMARKS
DECORAH        MOSUNNY   84  73  70 S9G18     29.94F HX  91
MASON CITY     PTSUNNY   86  72  62 SW13      29.95F HX  92
CHARLES CITY   MOSUNNY   84  77  79 SW9G18    29.95S HX  94
OELWEIN        MOSUNNY   84  73  70 S9G18     29.96F HX  91
$$

...ELSEWHERE IN IOWA...


CITY           SKY/WX    TMP DP  RH WIND       PRES   REMARKS
DES MOINES     CLOUDY    89  71  55 S10       29.95F HX  95
IOWA CITY      SUNNY     89  72  56 S12       29.98S HX  96
FORT DODGE     CLOUDY    84  72  65 S12       29.94F
$$

...NORTHERN ILLINOIS...


CITY           SKY/WX    TMP DP  RH WIND       PRES   REMARKS
CHICAGO-OHARE  MOSUNNY   87  72  60 SW12G21   29.99F HX  93
CHICAGO-MIDWAY MOSUNNY   88  71  57 SW10G18   30.00F HX  94
MOLINE         MOSUNNY   90  71  53 SW9       29.98S HX  96
ROCKFORD       MOSUNNY   89  70  53 SW12      30.00S HX  94
PEORIA         SUNNY     95  63  34 SW9       30.01F HX  96
$$

NOTE: "FAIR" INDICATES FEW OR NO CLOUDS BELOW 12,000 FEET WITH NO
SIGNIFICANT WEATHER AND/OR OBSTRUCTIONS TO VISIBILITY. WIND
SPEEDS ARE IN MILES-PER-HOUR.



USA.gov is the U.S. government's official web portal to all federal, state and local government web resources and services.